AMAZONAS NEXUS

Last updated on Tue Oct 08 2024 00:02:42 GMT+0000 (Coordinated Universal Time)

1 55508U 23017A 24280.52987358 -.00000271 00000+0 00000+0 0 9998 2 55508 0.0502 32.1531 0001800 114.2983 359.0079 1.00273165 844
UTC large
Height (km)
Speed (km/s)
/
Latitude / Longitude
Inclination (degrees)
Orbital Period (minutes)
Azimuth
Elevation
Range (km)
Doppler Factor

Next 0 passes for location: London (51.5072 / 0.1276)

Sorry there are no passes over London.